CW3556 Weather Reports


Display with metric or nautical units.
time (UTC)temp
F
wind
direction
speed
MPH
gust
MPH
rain 1hr
in
rain 24hr
in
rain mn
in
humidity
%
barometer
mb
20260906144003 79 82 3.0 8.0 0.00 0.00 0.00 78 1015.3
20260906143503 79 75 3.0 10.0 0.00 0.00 0.00 79 1015.3
20260906143024 78 70 4.0 10.0 0.00 0.00 0.00 80 1015.2
20260906142502 78 54 4.0 9.0 0.00 0.00 0.00 80 1015.1
20260906142003 78 42 4.0 9.0 0.00 0.00 0.00 81 1015.1
20260906141502 78 65 5.0 11.0 0.00 0.00 0.00 81 1015.1
20260906141002 78 68 5.0 11.0 0.00 0.00 0.00 81 1015.3
20260906140524 78 45 4.0 10.0 0.00 0.00 0.00 82 1015.2
20260906140003 77 33 4.0 10.0 0.00 0.00 0.00 82 1015.2
20260906135503 77 60 4.0 10.0 0.00 0.00 0.00 82 1015.2
20260906135003 77 70 4.0 10.0 0.00 0.00 0.00 82 1015.1
20260906134503 77 79 2.0 10.0 0.00 0.00 0.00 83 1015.0
20260906134002 76 79 3.0 10.0 0.00 0.00 0.00 83 1015.1
20260906133503 76 74 4.0 10.0 0.00 0.00 0.00 83 1015.0
20260906133003 76 70 4.0 10.0 0.00 0.00 0.00 84 1015.1
20260906132504 75 56 3.0 9.0 0.00 0.00 0.00 84 1015.2
20260906132002 75 42 3.0 9.0 0.00 0.00 0.00 84 1015.1
20260906131523 75 35 3.0 8.0 0.00 0.00 0.00 84 1015.2
20260906131024 75 54 3.0 7.0 0.00 0.00 0.00 84 1015.1
20260906130503 74 56 3.0 5.0 0.00 0.00 0.00 84 1015.1
20260906130003 74 24 2.0 8.0 0.00 0.00 0.00 85 1015.2
20260906125523 74 20 3.0 8.0 0.00 0.00 0.00 84 1015.2
20260906125003 74 20 2.0 8.0 0.00 0.00 0.00 85 1015.1
20260906124503 73 25 2.0 8.0 0.00 0.00 0.00 85 1015.2
20260906124024 73 27 2.0 5.0 0.00 0.00 0.00 85 1015.2
20260906123503 73 25 3.0 6.0 0.00 0.00 0.00 85 1015.1
20260906123003 73 47 2.0 6.0 0.00 0.00 0.00 85 1015.0
20260906122502 72 77 2.0 5.0 0.00 0.00 0.00 85 1014.9
20260906122003 72 56 2.0 5.0 0.00 0.00 0.00 85 1014.8
20260906121503 72 36 1.0 4.0 0.00 0.00 0.00 85 1014.7
20260906121003 72 34 2.0 5.0 0.00 0.00 0.00 85 1014.7
20260906120524 72 42 2.0 5.0 0.00 0.00 0.00 85 1014.7
20260906120003 72 65 2.0 4.0 0.00 0.00 0.00 85 1014.5
20260906115503 72 73 2.0 4.0 0.00 0.00 0.00 85 1014.4
20260906115003 72 75 1.0 4.0 0.00 0.00 0.00 85 1014.4
20260906114503 72 0 0.0 3.0 0.00 0.00 0.00 85 1014.3
20260906114002 72 76 1.0 3.0 0.00 0.00 0.00 85 1014.3
20260906113503 72 76 1.0 3.0 0.00 0.00 0.00 85 1014.2
20260906113002 73 0 0.0 2.0 0.00 0.00 0.00 84 1014.1
20260906112502 73 77 1.0 2.0 0.00 0.00 0.00 84 1014.1
20260906112003 73 77 1.0 2.0 0.00 0.00 0.00 84 1014.3
20260906111503 73 77 1.0 2.0 0.00 0.00 0.00 84 1014.3
20260906111003 73 0 0.0 2.0 0.00 0.00 0.00 84 1014.4
20260906110502 73 77 1.0 2.0 0.00 0.00 0.00 84 1014.4
20260906110003 73 77 1.0 2.0 0.00 0.00 0.00 84 1014.2
20260906105503 74 77 1.0 3.0 0.00 0.00 0.00 84 1014.1
20260906105003 74 0 0.0 3.0 0.00 0.00 0.00 84 1014.0
20260906104503 74 79 1.0 3.0 0.00 0.00 0.00 84 1014.0
20260906104024 74 77 1.0 3.0 0.00 0.00 0.00 84 1013.9
20260906103503 74 75 1.0 5.0 0.00 0.00 0.00 84 1013.9
20260906103003 74 73 2.0 5.0 0.00 0.00 0.00 84 1014.0
20260906102502 74 71 2.0 5.0 0.00 0.00 0.00 84 1013.9
20260906102003 74 70 2.0 4.0 0.00 0.00 0.00 84 1013.8
20260906101503 74 63 2.0 5.0 0.00 0.00 0.00 84 1013.9
20260906101024 74 63 2.0 7.0 0.00 0.00 0.00 84 1013.8
20260906100503 75 73 2.0 7.0 0.00 0.00 0.00 84 1013.6
20260906100024 75 78 2.0 4.0 0.00 0.00 0.00 84 1013.7
20260906095503 75 77 2.0 4.0 0.00 0.00 0.00 84 1013.5
20260906095003 75 75 2.0 4.0 0.00 0.00 0.00 84 1013.5
20260906094503 75 75 2.0 5.0 0.00 0.00 0.00 84 1013.5
20260906094002 75 75 2.0 5.0 0.00 0.00 0.00 84 1013.5
20260906093524 76 72 1.0 3.0 0.00 0.00 0.00 84 1013.4
20260906093003 76 67 1.0 3.0 0.00 0.00 0.00 84 1013.4
20260906092503 76 67 1.0 4.0 0.00 0.00 0.00 84 1013.5
20260906092003 76 67 1.0 4.0 0.00 0.00 0.00 84 1013.5
20260906091503 76 66 1.0 3.0 0.00 0.00 0.00 84 1013.5
20260906091024 76 66 1.0 5.0 0.00 0.00 0.00 84 1013.5
20260906090503 76 62 2.0 5.0 0.00 0.00 0.00 84 1013.4
20260906090003 76 61 2.0 5.0 0.00 0.00 0.00 84 1013.4
20260906085503 77 69 2.0 6.0 0.00 0.00 0.00 84 1013.3
20260906085003 77 72 3.0 8.0 0.00 0.00 0.00 83 1013.2
20260906084503 77 71 3.0 8.0 0.00 0.00 0.00 83 1013.3
20260906084023 77 64 2.0 8.0 0.00 0.00 0.00 83 1013.2
20260906083503 77 66 2.0 5.0 0.00 0.00 0.00 83 1013.2
20260906083003 77 74 2.0 7.0 0.00 0.00 0.00 83 1013.1
20260906082503 78 77 2.0 7.0 0.00 0.00 0.00 83 1013.1
20260906082003 78 71 2.0 7.0 0.00 0.00 0.00 83 1013.1
20260906081502 78 65 3.0 9.0 0.00 0.00 0.00 83 1013.0
20260906081003 78 63 3.0 9.0 0.00 0.00 0.00 83 1013.0
20260906080503 78 66 2.0 6.0 0.00 0.00 0.00 83 1012.9
20260906080002 78 70 2.0 7.0 0.00 0.00 0.00 83 1013.0
20260906075503 78 78 1.0 7.0 0.00 0.00 0.00 83 1013.0
20260906075003 79 83 2.0 5.0 0.00 0.00 0.00 83 1012.9
20260906074503 79 79 2.0 8.0 0.00 0.00 0.00 83 1013.0
20260906074003 79 78 3.0 8.0 0.00 0.00 0.00 83 1013.0
20260906073503 79 82 2.0 6.0 0.00 0.00 0.00 83 1013.1
20260906073003 79 86 2.0 6.0 0.00 0.00 0.00 83 1013.2
20260906072502 80 56 2.0 6.0 0.00 0.00 0.00 83 1013.2
20260906072003 80 26 2.0 6.0 0.00 0.00 0.00 83 1013.2
20260906071503 80 47 2.0 5.0 0.00 0.00 0.00 83 1013.2
20260906071003 80 73 4.0 9.0 0.00 0.00 0.00 83 1013.1
20260906070502 80 76 3.0 9.0 0.00 0.00 0.00 83 1013.1
20260906070003 80 71 3.0 8.0 0.00 0.00 0.00 82 1013.1
20260906065503 80 73 3.0 8.0 0.00 0.00 0.00 82 1013.0
20260906065003 80 78 3.0 8.0 0.00 0.00 0.00 82 1013.1
20260906064503 80 78 2.0 8.0 0.00 0.00 0.00 82 1013.0
20260906064003 80 78 2.0 6.0 0.00 0.00 0.00 82 1013.1
20260906063503 80 79 2.0 5.0 0.00 0.00 0.00 82 1013.1
20260906063003 80 86 2.0 6.0 0.00 0.00 0.00 82 1013.0
20260906062503 81 94 1.0 6.0 0.00 0.00 0.00 81 1013.0
20260906062003 81 95 1.0 4.0 0.00 0.00 0.00 81 1013.0
20260906061503 81 90 2.0 4.0 0.00 0.00 0.00 81 1012.9
20260906061002 81 92 3.0 6.0 0.00 0.00 0.00 81 1013.0
20260906060503 80 87 3.0 6.0 0.00 0.00 0.00 81 1013.0
20260906060003 80 70 3.0 6.0 0.00 0.00 0.00 81 1013.0
20260906055503 80 69 3.0 6.0 0.00 0.00 0.00 81 1013.0
20260906055003 80 61 2.0 6.0 0.00 0.00 0.00 81 1013.0
20260906054503 80 13 2.0 6.0 0.00 0.00 0.00 81 1013.0
20260906054003 80 333 1.0 3.0 0.00 0.00 0.00 80 1013.0
20260906053524 80 0 0.0 2.0 0.00 0.00 0.00 80 1013.0
20260906053003 80 333 1.0 3.0 0.00 0.00 0.00 80 1013.0
20260906052502 80 333 1.0 3.0 0.00 0.00 0.00 80 1013.0
20260906052003 80 0 0.0 2.0 0.00 0.00 0.00 80 1012.9
20260906051503 80 0 0.0 2.0 0.00 0.00 0.00 79 1012.9
20260906051003 80 333 1.0 2.0 0.00 0.00 0.00 79 1012.9
20260906050503 80 333 1.0 3.0 0.00 0.00 0.00 79 1012.9
20260906050003 80 333 1.0 3.0 0.00 0.00 0.00 79 1012.9
20260906045503 80 0 0.0 2.0 0.00 0.00 0.00 78 1012.9
20260906045024 80 0 0.0 0.0 0.00 0.00 0.00 78 1012.9
20260906044503 81 0 0.0 0.0 0.00 0.00 0.00 78 1012.8
20260906044003 81 0 0.0 0.0 0.00 0.00 0.00 77 1012.7
20260906043502 81 0 0.0 0.0 0.00 0.00 0.00 77 1012.6
20260906043003 81 0 0.0 2.0 0.00 0.00 0.00 77 1012.6
20260906042523 81 333 1.0 2.0 0.00 0.00 0.00 77 1012.5
20260906042002 81 0 0.0 2.0 0.00 0.00 0.00 76 1012.7
20260906041503 81 0 0.0 1.0 0.00 0.00 0.00 76 1012.6
20260906041003 81 0 0.0 1.0 0.00 0.00 0.00 76 1012.5
20260906040524 81 0 0.0 1.0 0.00 0.00 0.00 75 1012.4
20260906040003 81 0 0.0 0.0 0.00 0.00 0.00 75 1012.3
20260906035503 81 0 0.0 0.0 0.00 0.00 0.00 75 1012.3
20260906035003 82 0 0.0 0.0 0.00 0.00 0.00 74 1012.3
20260906034503 82 0 0.0 0.0 0.00 0.00 0.00 74 1012.4
20260906034003 82 0 0.0 0.0 0.00 0.00 0.00 74 1012.3
20260906033503 82 0 0.0 0.0 0.00 0.00 0.00 73 1012.3
20260906033003 82 0 0.0 0.0 0.00 0.00 0.00 73 1012.3
20260906032503 82 0 0.0 0.0 0.00 0.00 0.00 72 1012.4
20260906032003 82 0 0.0 1.0 0.00 0.00 0.00 72 1012.3
20260906031503 82 0 0.0 1.0 0.00 0.00 0.00 71 1012.3
20260906031003 83 0 0.0 0.0 0.00 0.00 0.00 71 1012.2
20260906030503 83 0 0.0 0.0 0.00 0.00 0.00 70 1012.1
20260906030003 83 0 0.0 0.0 0.00 0.00 0.00 70 1012.1
20260906025503 83 0 0.0 0.0 0.00 0.00 0.00 69 1012.0
20260906025003 83 0 0.0 1.0 0.00 0.00 0.00 69 1012.0
20260906024503 83 0 0.0 2.0 0.00 0.00 0.00 68 1011.9
20260906024024 84 333 1.0 2.0 0.00 0.00 0.00 68 1011.9
20260906023524 84 333 1.0 3.0 0.00 0.00 0.00 67 1011.8
20260906023003 84 333 1.0 3.0 0.00 0.00 0.00 67 1011.7
20260906022503 84 0 0.0 2.0 0.00 0.00 0.00 67 1011.7
20260906022003 84 0 0.0 1.0 0.00 0.00 0.00 67 1011.6
20260906021524 84 0 0.0 2.0 0.00 0.00 0.00 67 1011.6
20260906021024 84 0 0.0 2.0 0.00 0.00 0.00 67 1011.5
20260906020503 84 333 1.0 2.0 0.00 0.00 0.00 67 1011.3
20260906020003 85 333 1.0 2.0 0.00 0.00 0.00 65 1011.2
20260906015503 85 333 1.0 2.0 0.00 0.00 0.00 65 1011.1
20260906015024 85 333 1.0 3.0 0.00 0.00 0.00 65 1011.1
20260906014503 85 0 0.0 3.0 0.00 0.00 0.00 65 1011.0
20260906014003 85 333 1.0 2.0 0.00 0.00 0.00 66 1011.0
20260906013503 86 333 1.0 3.0 0.00 0.00 0.00 66 1010.9
20260906013003 86 333 1.0 3.0 0.00 0.00 0.00 66 1010.9
20260906012502 86 333 1.0 3.0 0.00 0.00 0.00 66 1010.8
20260906012003 86 332 2.0 3.0 0.00 0.00 0.00 65 1010.8
20260906011503 87 332 1.0 3.0 0.00 0.00 0.00 65 1010.8
20260906011003 87 332 1.0 3.0 0.00 0.00 0.00 65 1010.8
20260906010503 87 332 1.0 3.0 0.00 0.00 0.00 65 1010.8
20260906010003 88 334 2.0 3.0 0.00 0.00 0.00 65 1010.7
20260906005503 88 336 1.0 3.0 0.00 0.00 0.00 64 1010.6
20260906005003 88 336 1.0 3.0 0.00 0.00 0.00 64 1010.6
20260906004503 88 336 1.0 2.0 0.00 0.00 0.00 63 1010.6
20260906004003 89 0 0.0 2.0 0.00 0.00 0.00 63 1010.5
20260906003503 89 0 0.0 3.0 0.00 0.00 0.00 62 1010.4
20260906003024 89 335 1.0 4.0 0.00 0.00 0.00 62 1010.4
20260906002503 89 333 1.0 4.0 0.00 0.00 0.00 62 1010.5
20260906002003 90 331 1.0 3.0 0.00 0.00 0.00 61 1010.5
20260906001524 90 331 1.0 3.0 0.00 0.00 0.00 61 1010.6
20260906001003 90 330 1.0 5.0 0.00 0.00 0.00 61 1010.6
20260906000503 90 328 1.0 5.0 0.00 0.00 0.00 60 1010.7
20260906000003 90 324 2.0 4.0 0.00 0.00 0.00 59 1010.7
20260905235503 91 317 2.0 5.0 0.00 0.00 0.00 59 1010.7
20260905235003 91 305 2.0 5.0 0.00 0.00 0.00 59 1010.7
20260905234524 91 298 2.0 4.0 0.00 0.00 0.00 58 1010.7
20260905234003 91 295 2.0 4.0 0.00 0.00 0.00 58 1010.7
20260905233503 91 295 2.0 4.0 0.00 0.00 0.00 57 1010.6
20260905233003 92 296 2.0 7.0 0.00 0.00 0.00 57 1010.7
20260905232503 92 294 3.0 7.0 0.00 0.00 0.00 56 1010.7
20260905232003 92 294 3.0 5.0 0.00 0.00 0.00 56 1010.7
20260905231503 92 304 4.0 7.0 0.00 0.00 0.00 55 1010.8
20260905231003 93 309 5.0 9.0 0.00 0.00 0.00 54 1010.8
20260905230524 94 303 5.0 10.0 0.00 0.00 0.00 52 1010.7
20260905230003 94 296 4.0 10.0 0.00 0.00 0.00 52 1010.9
20260905225503 95 297 3.0 7.0 0.00 0.00 0.00 52 1010.8
20260905225003 95 300 3.0 8.0 0.00 0.00 0.00 51 1010.8
20260905224524 96 321 3.0 8.0 0.00 0.00 0.00 51 1010.7
20260905224003 96 8 2.0 4.0 0.00 0.00 0.00 51 1010.7
20260905223524 96 12 2.0 4.0 0.00 0.00 0.00 50 1010.5
20260905223003 96 11 2.0 4.0 0.00 0.00 0.00 50 1010.3
20260905222503 97 10 2.0 4.0 0.00 0.00 0.00 48 1010.4
20260905222003 97 10 2.0 4.0 0.00 0.00 0.00 48 1010.4
20260905221503 98 10 2.0 5.0 0.00 0.00 0.00 47 1010.4
20260905221003 98 16 2.0 6.0 0.00 0.00 0.00 47 1010.5
20260905220503 98 20 3.0 7.0 0.00 0.00 0.00 47 1010.5
20260905220024 99 11 3.0 7.0 0.00 0.00 0.00 45 1010.5
20260905215503 99 2 3.0 9.0 0.00 0.00 0.00 45 1010.6
20260905215003 100 10 4.0 9.0 0.00 0.00 0.00 44 1010.6
20260905214503 100 25 4.0 9.0 0.00 0.00 0.00 44 1010.6
20260905214003 100 29 5.0 10.0 0.00 0.00 0.00 43 1010.6
20260905213503 100 24 5.0 10.0 0.00 0.00 0.00 43 1010.6
20260905213003 100 27 4.0 10.0 0.00 0.00 0.00 44 1010.6
20260905212503 100 24 4.0 9.0 0.00 0.00 0.00 45 1010.5
20260905212003 100 12 4.0 9.0 0.00 0.00 0.00 43 1010.4
20260905211503 100 28 3.0 8.0 0.00 0.00 0.00 43 1010.5
20260905211003 100 52 4.0 8.0 0.00 0.00 0.00 44 1010.5
20260905210503 101 41 4.0 9.0 0.00 0.00 0.00 44 1010.6
20260905210003 101 25 4.0 9.0 0.00 0.00 0.00 44 1010.7
20260905205524 100 34 4.0 9.0 0.00 0.00 0.00 44 1010.8
20260905205002 100 33 5.0 9.0 0.00 0.00 0.00 43 1010.9
20260905204503 100 30 5.0 10.0 0.00 0.00 0.00 43 1011.0
20260905204024 100 29 5.0 10.0 0.00 0.00 0.00 44 1011.0
20260905203503 100 25 4.0 9.0 0.00 0.00 0.00 45 1011.0
20260905203024 100 24 4.0 7.0 0.00 0.00 0.00 45 1010.9
20260905202524 100 10 3.0 7.0 0.00 0.00 0.00 45 1010.9
20260905202003 100 2 4.0 11.0 0.00 0.00 0.00 43 1011.0
20260905201502 101 21 5.0 11.0 0.00 0.00 0.00 42 1011.1
20260905201003 101 30 5.0 11.0 0.00 0.00 0.00 43 1011.1
20260905200503 100 360 5.0 11.0 0.00 0.00 0.00 42 1011.1
20260905200003 100 3 5.0 11.0 0.00 0.00 0.00 39 1011.2
20260905195524 100 29 5.0 10.0 0.00 0.00 0.00 43 1011.2
20260905195003 100 29 5.0 10.0 0.00 0.00 0.00 44 1011.2
20260905194503 99 25 6.0 12.0 0.00 0.00 0.00 45 1011.2
20260905194024 99 11 6.0 13.0 0.00 0.00 0.00 45 1011.3
20260905193503 100 355 5.0 16.0 0.00 0.00 0.00 46 1011.3
20260905193024 100 356 8.0 19.0 0.00 0.00 0.00 45 1011.4
20260905192503 102 324 8.0 19.0 0.00 0.00 0.00 42 1011.6
20260905192003 103 288 7.0 12.0 0.00 0.00 0.00 38 1011.3
20260905191503 102 289 7.0 12.0 0.00 0.00 0.00 38 1011.4
20260905191002 102 290 6.0 12.0 0.00 0.00 0.00 39 1011.5
20260905190503 102 295 6.0 11.0 0.00 0.00 0.00 40 1011.6
20260905190003 102 304 6.0 13.0 0.00 0.00 0.00 37 1011.6
20260905185503 103 300 6.0 13.0 0.00 0.00 0.00 38 1011.7
20260905185003 103 291 7.0 14.0 0.00 0.00 0.00 38 1011.8
20260905184524 103 282 8.0 15.0 0.00 0.00 0.00 39 1011.8
20260905184002 102 283 6.0 15.0 0.00 0.00 0.00 39 1011.7
20260905183524 102 298 4.0 11.0 0.00 0.00 0.00 39 1011.7
20260905183003 102 310 4.0 9.0 0.00 0.00 0.00 41 1011.8
20260905182503 102 304 4.0 9.0 0.00 0.00 0.00 41 1011.8
20260905182003 102 293 4.0 11.0 0.00 0.00 0.00 40 1011.8
20260905181503 102 303 5.0 11.0 0.00 0.00 0.00 40 1011.9
20260905181003 102 317 4.0 9.0 0.00 0.00 0.00 39 1012.1
20260905180524 102 298 3.0 9.0 0.00 0.00 0.00 40 1012.1
20260905180003 102 272 3.0 9.0 0.00 0.00 0.00 41 1012.2
20260905175503 101 267 3.0 7.0 0.00 0.00 0.00 43 1012.1
20260905175003 101 290 3.0 8.0 0.00 0.00 0.00 44 1012.3
20260905174503 100 295 4.0 10.0 0.00 0.00 0.00 45 1012.3
20260905174002 100 279 4.0 10.0 0.00 0.00 0.00 45 1012.4
20260905173503 100 274 4.0 8.0 0.00 0.00 0.00 45 1012.4
20260905173003 100 299 4.0 8.0 0.00 0.00 0.00 46 1012.4
20260905172503 100 301 3.0 7.0 0.00 0.00 0.00 47 1012.4
20260905172003 99 301 3.0 6.0 0.00 0.00 0.00 47 1012.5
20260905171503 99 340 2.0 6.0 0.00 0.00 0.00 49 1012.4
20260905171024 99 329 2.0 5.0 0.00 0.00 0.00 50 1012.6
20260905170503 98 310 3.0 7.0 0.00 0.00 0.00 50 1012.7
20260905170024 98 307 4.0 9.0 0.00 0.00 0.00 49 1012.8
20260905165502 98 316 4.0 9.0 0.00 0.00 0.00 50 1012.9
20260905165003 98 316 3.0 8.0 0.00 0.00 0.00 50 1012.9
20260905164503 98 337 4.0 9.0 0.00 0.00 0.00 50 1013.0
20260905164003 98 360 3.0 9.0 0.00 0.00 0.00 48 1013.0
20260905163503 98 356 3.0 6.0 0.00 0.00 0.00 52 1013.0
20260905163003 97 350 3.0 5.0 0.00 0.00 0.00 53 1013.1
20260905162503 97 301 3.0 7.0 0.00 0.00 0.00 51 1013.2
20260905162024 97 302 3.0 7.0 0.00 0.00 0.00 52 1013.1
20260905161503 96 302 4.0 9.0 0.00 0.00 0.00 52 1013.2
20260905161003 96 274 3.0 9.0 0.00 0.00 0.00 53 1013.2
20260905160503 96 269 3.0 7.0 0.00 0.00 0.00 53 1013.2
20260905160024 96 280 3.0 7.0 0.00 0.00 0.00 54 1013.2
20260905155503 95 277 3.0 8.0 0.00 0.00 0.00 52 1013.2
20260905155003 95 272 3.0 8.0 0.00 0.00 0.00 55 1013.1
20260905154503 95 275 3.0 7.0 0.00 0.00 0.00 56 1013.1
20260905154003 94 283 3.0 7.0 0.00 0.00 0.00 57 1013.1
20260905153503 94 305 3.0 5.0 0.00 0.00 0.00 55 1013.2
20260905153003 94 311 4.0 8.0 0.00 0.00 0.00 56 1013.3
20260905152503 94 297 4.0 8.0 0.00 0.00 0.00 55 1013.3
20260905152002 93 272 4.0 8.0 0.00 0.00 0.00 58 1013.2
20260905151524 93 264 3.0 8.0 0.00 0.00 0.00 58 1013.2
20260905151003 92 264 3.0 7.0 0.00 0.00 0.00 60 1013.1
20260905150503 92 273 2.0 6.0 0.00 0.00 0.00 60 1013.1
20260905150003 91 288 3.0 7.0 0.00 0.00 0.00 61 1013.1
20260905145503 91 298 4.0 7.0 0.00 0.00 0.00 62 1013.1
20260905145002 90 299 4.0 9.0 0.00 0.00 0.00 62 1013.1
20260905144524 90 295 4.0 9.0 0.00 0.00 0.00 61 1013.1